Location: Unspecified
(0.0000°N, 0.0000°E)
Time: 12:07:23
(UTC+00:00)

LightSail 2 - Pass Details

Date: 27 March 2020
Orbit: 693 x 726 km, 24.0° (Epoch: 02 April)

Event Time Altitude Azimuth Distance (km) Brightness Sun altitude
Rises 19:55:12 0° 254° (WSW) 3,102 9.5 -27.5°
Reaches altitude 10° 19:59:09 10° 225° (SW) 2,176 8.1 -28.5°
Maximum altitude 20:01:17 12° 200° (SSW) 2,006 7.6 -29.0°
Enters shadow 20:01:59 12° 191° (S) 2,023 7.5 -29.2°
